Theta_e
289 289 289 289 289 289 289 289 289 290 290 289 289 289 288 288 288 288 288 287 287 287 286 286 286 286 286 285 285 284 284 283 283 283 282 282 282 282 281 281 280 281 281 280 280 280 280 280 280 280 280 279 280 279 279 279 279 280 279 279 279 279 280 279 278 279 277 278 278 278 278 278 278 279 278 279 279 279 279 280 280 280 280 280 280
289 289 289 289 289 289 289 288 288 288 288 289 288 289 288 288 288 287 287 287 287 287 286 286 286 286 286 285 285 284 284 283 283 282 282 282 281 282 281 280 280 281 280 279 279 280 280 279 279 279 279 279 279 278 279 278 278 278 278 278 278 278 279 278 279 278 277 277 276 277 277 278 277 279 277 277 278 279 278 279 280 280 280 280 281
290 289 289 288 288 288 288 288 288 288 288 288 288 288 288 288 287 287 287 286 286 286 286 286 286 286 285 285 285 284 284 283 283 282 282 282 281 281 281 280 280 280 280 279 279 279 279 279 279 279 278 278 278 278 278 278 278 278 277 278 278 278 278 278 278 276 277 276 277 276 276 277 276 277 277 277 278 278 278 278 279 280 280 281 281
289 289 289 288 288 287 287 288 287 287 287 288 288 288 288 288 287 287 287 287 286 286 286 286 285 285 285 285 284 284 284 283 283 282 282 282 282 281 281 280 280 281 280 280 280 279 279 279 279 278 278 277 277 277 278 278 277 277 277 277 277 277 277 277 278 278 277 275 275 275 276 275 276 277 277 277 277 277 278 279 279 279 280 280 280
288 288 289 288 288 287 287 287 287 287 287 288 288 288 288 288 288 287 287 286 286 286 285 286 285 285 284 284 284 284 284 283 283 282 282 282 282 282 281 281 280 281 281 280 281 279 279 279 279 278 278 277 277 276 277 276 277 277 276 276 276 276 276 276 276 276 275 275 274 275 276 276 276 276 277 276 277 278 278 278 278 279 279 280 281
287 288 288 288 288 288 287 287 287 287 287 287 288 288 288 288 288 287 287 286 286 285 285 285 285 285 285 285 285 284 284 284 283 282 282 282 282 282 282 281 281 281 281 281 280 280 279 279 279 278 278 277 277 276 276 276 276 276 276 276 276 275 275 275 276 275 275 274 274 273 274 274 274 275 277 277 276 276 277 278 279 279 279 279 280
286 286 287 287 287 287 287 287 287 287 287 287 287 287 287 287 287 287 287 286 286 285 285 285 285 285 285 285 284 284 284 284 283 283 282 282 282 281 281 281 280 280 281 281 280 280 280 280 279 278 278 278 277 276 276 276 276 275 275 275 275 275 274 274 274 274 274 273 274 274 274 275 275 275 277 278 277 277 276 277 277 279 279 278 278
285 285 285 286 286 286 286 287 287 287 287 287 287 287 287 287 287 287 287 286 286 286 285 285 285 285 285 285 285 285 284 284 283 283 283 282 282 281 281 281 280 280 280 280 280 280 280 280 280 279 278 278 278 277 277 276 276 275 276 275 275 274 274 274 273 273 273 273 272 273 274 274 275 276 277 277 276 276 277 276 275 276 277 278 278
284 284 284 284 285 285 286 286 287 286 286 286 286 286 287 286 286 287 286 286 286 286 286 285 284 284 285 284 284 284 284 284 283 283 282 282 282 281 281 281 280 280 280 280 280 280 279 279 279 279 278 279 280 279 278 278 276 275 275 275 274 274 274 273 273 273 272 272 272 273 274 274 275 275 275 275 275 275 277 278 276 276 277 276 278
284 284 284 284 284 285 285 285 285 285 286 286 286 286 286 286 286 286 286 286 286 286 285 285 285 284 284 284 284 284 284 284 284 285 285 282 281 281 281 281 281 280 280 280 279 279 279 279 279 280 280 280 280 280 280 280 279 277 276 275 274 274 273 272 272 272 272 271 272 273 273 273 274 275 275 276 277 277 276 276 275 276 276 276 277
283 283 283 283 284 284 284 284 284 284 285 285 285 285 286 286 286 285 285 285 285 285 284 284 284 284 284 284 283 283 284 284 285 286 286 286 283 282 281 281 281 280 280 279 279 278 278 278 278 279 280 280 279 281 281 281 280 279 279 278 277 274 272 272 271 272 272 272 273 274 274 274 275 276 276 276 277 276 276 276 275 275 275 274 273
283 283 283 283 283 283 283 283 283 283 284 284 284 284 284 284 285 285 285 285 284 284 284 284 284 284 284 283 283 283 283 285 286 287 287 287 285 282 282 281 280 280 280 279 279 278 278 277 277 277 278 279 279 279 280 281 281 280 280 279 279 278 278 274 272 272 272 273 273 274 274 274 275 276 276 276 276 276 276 276 275 275 274 274 274
283 283 283 283 283 283 283 282 282 282 283 283 283 283 283 283 284 284 284 285 284 284 284 284 284 284 283 283 283 284 283 286 287 287 287 287 287 284 281 281 280 280 280 279 279 278 278 277 276 276 277 279 279 279 279 279 281 281 280 279 279 279 279 279 278 275 275 274 274 274 274 275 275 276 277 276 277 275 275 275 276 276 276 275 275
283 283 283 283 282 282 282 281 281 281 282 282 282 282 282 282 283 283 283 284 284 284 284 283 283 283 283 283 283 283 283 285 287 287 287 287 288 286 282 281 280 280 279 279 279 278 277 276 276 275 276 278 278 278 278 279 279 278 278 278 277 278 280 280 279 279 278 276 276 274 277 277 276 277 278 278 276 275 275 275 276 276 275 275 276
282 282 282 282 282 282 282 282 281 281 281 281 281 281 281 281 282 283 283 283 283 283 283 283 283 283 283 283 283 283 283 285 286 287 287 287 288 287 283 281 280 280 279 279 278 278 277 276 276 275 276 276 277 277 278 278 278 277 277 277 277 277 278 278 278 278 278 278 278 277 278 279 278 278 278 278 277 277 277 277 277 275 274 274 274
282 282 282 282 282 282 282 282 282 281 281 281 280 281 281 281 281 281 282 282 282 282 282 282 282 282 283 282 282 282 283 285 286 286 287 287 288 286 283 281 280 279 279 278 278 278 277 277 276 275 275 276 278 280 279 278 277 276 275 276 276 276 277 279 281 281 280 280 280 279 279 278 279 278 278 278 278 278 278 277 275 273 271 270 269
281 281 281 282 282 282 282 282 281 281 282 281 281 281 281 280 281 281 280 281 281 281 281 282 282 282 282 282 281 281 282 284 286 286 287 287 287 285 284 281 280 279 278 278 277 277 277 276 276 275 275 275 279 281 281 280 276 275 275 275 275 276 276 279 281 282 281 280 280 279 280 280 280 280 281 281 280 279 275 273 272 271 268 267 267
280 281 281 281 281 281 282 282 281 281 281 281 281 281 281 281 281 281 280 280 280 280 280 279 279 279 280 280 281 281 281 282 285 286 286 287 286 284 283 281 279 278 278 277 277 277 276 278 277 275 275 275 280 282 282 279 275 275 275 274 274 274 276 276 277 279 281 281 280 280 280 280 281 282 282 282 280 278 273 270 270 269 267 267 265
279 279 280 281 281 281 281 282 282 281 281 281 281 281 281 281 281 280 280 279 279 280 279 278 278 278 278 279 281 280 280 281 283 285 286 287 286 284 283 281 279 278 277 276 276 276 275 277 278 277 276 276 281 282 282 279 275 275 275 275 274 273 275 275 275 276 277 277 278 278 279 280 280 277 276 277 277 276 273 271 270 268 266 266 266
279 279 280 279 280 280 281 281 281 281 281 281 281 281 281 280 280 280 280 279 278 278 278 278 277 277 277 277 278 279 279 279 281 284 285 286 287 285 283 280 278 277 277 276 275 275 275 275 277 279 279 279 281 283 283 281 276 276 275 274 273 273 275 274 275 275 275 276 277 277 276 276 274 274 274 273 272 272 272 271 270 268 266 266 265
278 278 278 278 278 278 280 280 280 280 280 281 281 280 280 280 280 279 278 278 278 277 277 277 277 277 277 277 277 277 278 278 279 282 284 285 286 286 282 280 279 278 276 275 275 274 274 274 276 279 280 280 281 282 283 282 279 275 275 274 274 275 276 274 275 276 274 275 275 275 275 273 272 272 272 271 271 270 270 271 271 270 268 266 266
277 277 276 276 276 277 277 278 279 279 280 280 279 279 280 280 279 278 278 277 277 277 277 276 276 276 276 276 276 276 278 279 278 281 283 285 286 287 283 280 279 278 276 275 275 274 274 274 275 278 280 280 280 282 284 283 281 275 275 277 278 278 275 275 275 275 274 274 273 272 271 270 269 268 268 268 268 269 269 269 270 270 270 270 268
276 275 275 275 275 275 276 276 277 278 278 279 278 278 278 278 278 277 276 276 276 276 276 276 276 275 275 275 275 275 276 277 280 279 281 284 285 286 285 282 282 278 276 275 275 274 275 276 276 279 280 280 281 282 284 284 281 276 278 279 279 279 277 274 274 273 273 271 270 269 269 268 267 267 266 267 268 268 269 269 270 270 270 270 271
274 274 274 273 274 274 274 275 275 276 276 276 276 275 276 277 278 277 277 276 276 275 276 276 275 275 275 275 275 275 275 276 278 280 280 282 284 286 286 284 283 279 277 276 276 276 275 276 276 280 281 281 282 283 284 283 279 279 279 279 279 279 275 272 272 271 270 269 269 270 269 267 267 266 266 267 267 268 269 269 269 270 269 270 270
272 272 272 272 272 272 273 273 273 273 273 273 273 274 274 276 276 277 276 275 275 275 275 275 275 274 275 274 275 275 275 275 275 278 280 281 283 285 286 285 283 282 277 276 276 276 277 278 279 280 281 282 282 283 283 283 281 280 280 280 279 276 271 271 270 269 269 269 269 268 268 266 266 266 267 268 268 269 268 268 268 268 268 268 267
270 270 270 270 270 271 270 270 270 270 271 271 272 273 273 274 275 276 276 275 275 275 275 275 275 274 274 274 274 275 274 274 274 275 277 279 281 283 284 285 284 282 280 277 278 278 279 279 280 280 281 281 280 280 280 281 282 280 280 280 276 271 271 270 268 268 268 268 267 266 266 265 265 266 267 267 267 266 266 265 265 265 265 265 265
268 268 268 268 268 268 268 268 268 269 269 270 270 272 273 274 275 275 276 275 275 275 275 275 275 275 274 275 275 275 274 273 273 274 275 276 278 280 282 283 284 282 279 277 278 277 278 278 278 280 280 281 281 280 280 281 280 280 278 275 271 271 269 270 269 269 268 267 266 266 265 265 266 266 265 265 264 265 266 264 264 264 264 264 264
266 265 265 266 266 266 266 267 267 267 267 268 269 270 271 273 274 274 275 275 275 275 275 275 275 275 275 275 275 274 273 273 273 273 274 275 276 278 280 281 281 280 277 276 276 276 277 278 279 278 279 279 279 277 277 275 273 270 268 268 268 268 269 271 271 270 269 267 266 265 264 264 263 263 264 263 263 264 265 264 263 263 264 264 263
264 263 263 264 263 265 265 265 265 266 266 267 268 269 270 271 273 274 276 277 276 276 275 276 276 276 276 276 275 274 273 273 273 276 275 277 276 277 278 280 280 279 277 278 275 275 275 275 275 275 276 275 272 271 270 268 268 267 266 266 267 267 268 268 267 265 265 264 264 263 262 263 261 263 262 262 262 262 264 263 263 263 263 264 263
261 261 261 262 262 263 263 264 264 265 265 266 267 268 271 274 274 273 273 277 279 281 280 277 277 278 277 277 277 276 275 276 278 278 278 279 280 280 280 282 282 279 279 280 277 274 274 273 274 274 273 271 271 270 269 268 265 265 265 267 265 265 265 265 264 264 264 263 263 262 261 261 261 261 261 261 261 262 263 264 263 264 263 263 263
259 259 260 260 261 262 262 262 263 263 264 264 265 265 266 268 273 275 275 276 277 280 281 282 282 282 280 277 278 281 281 280 279 279 279 280 280 281 281 282 283 281 280 277 275 273 273 272 272 273 272 271 271 270 270 269 267 265 264 264 265 265 265 264 263 263 262 262 262 261 261 261 261 261 260 261 261 261 262 263 263 263 263 263 263
257 258 258 259 260 260 260 261 261 261 262 263 263 263 264 264 265 270 273 274 276 278 280 282 282 282 283 282 280 278 280 281 281 280 280 280 280 281 281 282 283 281 281 280 273 273 273 272 272 272 271 271 271 270 269 269 267 266 264 264 263 263 263 263 263 262 262 261 261 261 261 261 261 260 261 260 261 261 262 262 262 263 263 263 263
257 257 257 258 259 259 259 259 260 260 260 261 261 262 262 263 263 264 268 273 275 277 279 280 281 282 283 283 283 282 280 280 281 281 280 280 281 281 281 282 283 282 281 277 273 272 272 272 272 272 271 270 271 270 269 268 266 265 264 264 263 263 262 262 264 261 261 261 261 261 261 260 260 260 261 261 261 261 262 262 262 262 263 262 263
257 257 257 258 258 258 259 259 259 260 260 260 261 261 261 261 261 262 262 263 266 270 275 278 280 281 282 283 283 283 283 282 281 281 281 280 281 281 281 280 283 282 280 275 273 272 272 271 271 271 270 270 270 269 268 267 266 264 264 264 263 262 262 263 262 261 261 262 261 260 261 260 261 260 260 260 261 261 261 261 262 262 262 263 263
257 258 259 259 258 259 259 260 260 260 261 261 261 262 262 263 264 264 264 264 265 266 268 271 276 279 279 280 282 283 283 283 281 281 281 281 281 281 282 279 278 278 278 276 274 273 272 271 270 270 269 269 268 268 267 266 265 264 264 263 261 261 261 261 261 261 260 261 260 260 260 260 259 260 260 260 261 261 261 261 262 262 262 263 263
257 257 258 258 258 259 259 259 260 260 260 261 261 262 263 264 264 265 266 267 268 268 269 271 272 276 279 280 281 282 282 283 282 281 281 281 281 281 277 276 277 277 276 275 273 273 272 271 270 269 269 269 268 267 267 265 264 263 262 261 260 260 260 260 259 259 259 259 259 259 260 259 260 260 261 260 260 260 260 261 262 262 263 263 264
257 257 258 258 258 259 259 260 260 260 262 262 262 262 262 262 263 263 263 263 264 267 271 272 273 274 276 276 278 280 282 282 282 281 281 281 281 280 277 277 277 276 276 274 273 271 270 270 270 269 269 268 267 266 265 263 262 262 263 261 260 260 259 259 259 259 258 258 259 260 260 260 260 260 260 259 260 261 261 262 262 263 263 264 265
257 258 258 258 259 259 259 259 260 261 261 261 262 262 262 263 263 263 263 264 265 266 267 271 273 273 272 274 277 278 279 281 282 281 280 280 278 278 277 277 277 276 275 274 272 271 270 270 269 268 268 267 265 265 263 262 261 261 260 260 260 259 261 260 261 259 258 259 259 260 260 259 259 259 259 259 260 261 261 262 263 263 264 264 265
258 259 260 260 262 260 260 261 261 261 261 262 262 262 262 262 263 264 265 266 266 267 268 269 271 272 273 274 275 277 277 276 277 276 276 276 277 277 277 277 277 276 275 273 270 270 270 268 267 267 266 265 264 263 262 261 261 260 259 259 258 260 261 259 259 259 259 259 259 259 259 258 259 259 259 259 260 261 261 262 263 264 264 264 264
258 258 259 260 259 259 259 259 259 259 260 260 260 261 262 263 262 262 263 263 264 267 270 271 271 272 273 274 274 275 274 275 275 275 275 275 275 276 276 276 276 275 272 271 270 269 269 267 266 265 264 263 262 261 260 260 259 259 259 258 258 259 259 259 259 259 258 258 258 258 258 258 258 259 259 260 260 261 262 262 263 264 264 264 264
258 258 259 260 260 259 260 260 260 260 260 261 261 262 262 263 264 264 265 265 266 267 267 269 271 273 273 274 276 276 275 275 275 275 275 274 275 275 276 276 276 273 270 269 269 268 267 265 264 263 262 261 261 260 259 259 258 258 257 258 258 259 258 258 258 258 257 257 257 257 257 258 258 259 259 260 262 263 263 264 264 264 264 264 264
258 258 258 259 259 259 259 259 260 261 261 262 262 263 264 264 264 264 265 266 266 267 268 269 270 272 273 276 276 277 276 275 275 275 274 274 274 275 275 276 274 270 270 269 268 266 264 264 263 262 261 260 259 259 258 258 258 257 257 257 257 257 256 256 256 256 256 256 256 257 257 257 258 259 260 263 263 263 263 263 263 264 264 264 264
258 258 258 258 258 258 258 258 259 258 259 259 260 262 263 263 264 266 266 266 266 267 268 269 271 271 272 275 275 276 276 275 271 274 274 274 274 274 273 271 269 269 269 268 267 265 264 263 262 261 260 259 259 258 257 257 257 257 257 256 256 256 256 256 256 256 256 256 256 257 257 258 260 261 261 261 262 262 262 263 263 263 263 263 263
259 259 259 259 259 259 259 259 259 259 259 260 260 261 261 262 263 264 264 266 268 268 269 270 270 271 271 273 274 274 275 274 274 274 273 272 271 269 268 267 266 265 265 265 264 264 263 262 261 259 259 258 258 258 258 257 257 257 257 256 256 256 256 256 255 255 256 256 256 257 258 258 259 260 260 261 261 261 262 263 263 263 263 263 263
259 259 259 259 258 258 258 259 259 259 259 259 259 260 261 261 261 262 264 265 267 269 269 269 270 270 270 271 272 273 274 274 271 270 269 268 266 265 264 264 264 263 263 262 262 262 261 259 258 257 256 256 256 256 256 256 257 257 257 256 256 256 255 256 256 256 256 256 257 258 258 258 258 259 259 260 261 262 263 263 263 263 263 263 263
260 260 260 260 259 258 258 258 259 259 259 259 259 259 260 261 262 263 264 265 268 269 269 269 270 270 270 271 272 271 270 268 267 266 264 264 263 263 263 263 263 263 262 262 261 259 259 258 257 256 255 254 254 255 255 255 255 256 256 257 257 258 257 256 256 256 256 256 257 257 258 258 258 259 260 261 262 263 263 263 263 263 263 263 262
260 260 261 260 259 259 259 259 259 259 259 259 260 260 261 262 263 264 266 268 268 268 269 269 269 270 270 269 266 265 265 264 263 263 262 262 262 262 261 261 261 261 260 260 258 257 257 256 255 255 254 254 253 253 253 253 253 254 254 255 255 254 255 255 255 255 255 255 256 256 257 258 259 260 261 261 262 262 263 263 263 262 262 263 262
260 260 261 260 259 259 259 259 259 260 260 260 261 261 262 263 265 266 267 268 268 268 268 268 267 265 264 263 263 263 262 262 262 261 261 260 260 260 260 259 259 259 258 257 256 256 255 255 254 253 253 252 252 252 252 252 252 252 253 253 253 253 253 254 253 253 254 255 256 256 257 258 259 259 260 261 262 263 263 262 263 263 263 263 263
259 259 260 260 260 259 259 259 260 259 260 260 261 262 262 264 265 266 266 266 267 267 266 264 263 263 262 262 262 261 261 260 260 259 259 258 259 259 259 258 257 256 255 255 254 254 254 253 253 253 252 252 251 251 251 251 251 251 252 252 253 254 254 255 253 253 254 255 255 257 257 258 258 259 261 262 263 263 262 262 262 263 263 263 262
259 259 259 259 260 260 261 261 261 261 261 262 262 263 264 264 264 264 265 264 263 263 262 262 262 261 261 260 260 260 260 259 258 258 258 258 258 257 256 256 256 255 254 253 253 253 252 252 252 252 252 251 251 251 251 251 251 251 251 251 254 256 255 256 256 255 255 256 256 257 258 259 260 261 263 264 263 261 260 261 262 263 263 261 261
258 258 258 258 259 259 259 259 260 261 261 262 262 262 262 263 262 262 262 261 261 260 260 260 260 260 260 260 259 259 259 258 258 257 256 255 255 255 254 255 253 253 252 252 252 251 251 251 251 251 250 250 250 250 251 251 251 251 251 253 255 256 257 257 256 257 258 258 258 259 260 261 262 263 265 264 262 261 261 262 262 262 262 261 261
Wind_Speed
12 10 8 7 7 8 9 7 9 8 9 9 10 10 9 9 10 10 8 11 10 11 11 11 11 11 11 13 11 11 10 10 9 8 10 10 10 10 9 11 12 10 10 10 9 10 10 10 10 8 8 9 7 7 6 7 6 5 5 5 5 5 6 6 8 6 3 3 5 6 3 3 4 5 4 3 3 4 5 5 6 6 6 6 7
14 13 10 8 8 8 9 7 7 7 9 9 11 10 9 10 10 9 12 10 11 13 11 12 11 11 11 11 11 11 11 11 10 10 11 11 12 8 10 12 12 11 10 11 12 9 10 10 10 10 10 9 9 9 8 8 8 8 7 8 7 7 6 6 6 5 5 4 4 3 3 3 5 2 3 4 5 5 7 6 5 5 5 6 6
13 12 11 10 10 9 8 8 7 8 9 9 10 11 10 10 9 11 11 9 10 11 12 12 11 12 11 10 11 11 12 12 11 11 11 12 12 11 10 12 13 13 13 13 12 10 11 11 11 10 8 10 9 8 9 9 8 9 9 7 8 7 7 6 6 6 7 4 4 3 4 4 5 3 2 4 6 7 8 8 7 6 6 7 7
15 14 13 12 10 9 9 8 8 8 9 9 11 11 10 10 9 10 10 9 10 10 11 13 12 12 12 13 12 12 13 13 13 12 13 12 12 12 11 11 12 12 13 13 14 14 14 12 12 12 12 11 11 10 10 10 10 9 9 8 7 8 8 7 6 4 5 5 4 5 4 5 5 4 4 5 7 7 6 7 7 7 8 8 8
12 14 14 14 13 11 10 9 8 9 10 9 10 10 10 10 9 10 10 10 11 10 10 11 13 12 12 13 13 14 14 13 13 13 12 12 13 12 11 11 12 13 13 13 13 15 14 15 13 13 13 12 10 11 11 13 10 10 10 9 8 8 6 7 7 5 5 7 5 5 5 5 4 4 4 4 5 6 6 7 7 8 8 8 8
12 12 13 14 15 15 12 10 9 9 10 10 11 10 10 9 10 9 10 11 11 11 12 11 12 13 12 13 14 13 11 12 13 12 13 12 12 12 11 11 12 12 11 12 13 13 14 14 13 14 14 15 14 12 12 15 12 11 11 10 9 8 9 9 8 8 7 6 6 5 6 6 5 5 5 6 6 5 5 5 6 7 7 8 8
13 12 13 12 12 15 15 14 12 10 10 9 9 8 9 9 10 10 10 11 11 11 11 12 12 13 14 12 12 12 12 12 12 13 12 12 13 13 13 12 12 13 14 12 11 12 13 13 14 15 16 15 14 15 15 14 12 14 13 12 11 11 11 10 10 10 8 7 6 6 5 5 5 5 5 6 7 6 5 4 5 5 6 8 9
12 12 12 12 12 12 12 12 12 12 10 10 9 9 9 9 9 10 9 11 11 12 12 13 13 12 13 13 14 12 13 12 12 12 12 12 15 16 14 14 13 15 15 16 15 14 13 13 14 16 16 15 15 15 16 15 12 13 11 10 11 11 10 9 9 9 8 8 7 7 6 5 6 6 5 6 6 7 6 5 6 6 6 7 9
11 11 12 13 13 12 12 11 10 11 11 10 10 10 9 8 9 8 9 9 9 11 12 12 12 13 13 13 13 13 14 15 13 13 13 15 16 17 14 13 12 12 11 11 12 11 10 10 11 12 17 18 16 15 17 15 13 12 11 12 12 12 9 8 9 9 8 7 7 6 6 7 7 7 8 8 8 6 3 5 7 7 8 8 9
10 11 12 12 12 13 13 12 13 12 13 13 13 11 10 9 8 8 8 9 9 9 10 11 12 14 13 13 13 12 13 12 15 21 17 16 16 15 15 16 17 13 13 12 11 10 10 9 11 12 17 19 21 22 23 23 20 14 15 15 13 12 11 9 10 9 9 9 9 9 9 9 9 10 8 7 6 4 5 6 6 6 7 8 8
8 8 10 10 11 11 12 13 13 14 13 12 12 13 13 10 9 8 8 8 9 9 10 11 12 11 13 13 14 13 13 12 18 19 24 22 16 15 16 15 15 13 12 12 12 12 10 10 8 13 16 17 19 25 26 26 24 21 21 22 20 17 16 11 9 10 10 9 8 9 9 8 9 9 8 6 6 6 5 5 6 6 6 6 6
9 8 8 8 9 10 10 12 13 13 13 13 13 12 11 11 10 8 8 7 8 8 9 11 11 11 10 12 13 13 13 14 17 21 23 24 20 15 13 12 13 14 11 11 10 10 12 10 8 7 10 13 13 17 21 23 23 22 23 23 22 21 18 14 14 10 9 9 9 10 8 9 9 9 8 7 7 6 6 6 7 7 7 7 8
9 9 9 9 10 9 10 11 11 11 11 12 11 11 11 11 11 11 10 8 6 6 9 9 10 10 11 12 13 13 13 12 18 21 23 24 24 19 12 13 12 13 10 11 10 10 9 10 9 9 8 15 13 11 13 16 20 22 21 22 22 22 20 16 13 11 11 9 10 10 10 9 9 9 9 8 6 5 5 6 7 8 8 8 8
8 9 8 9 9 9 9 9 10 11 11 11 11 11 11 11 10 10 9 9 7 7 7 9 9 10 11 12 12 13 13 13 18 20 22 24 24 21 14 14 14 14 11 11 10 11 11 11 11 10 9 12 10 12 12 13 14 15 14 14 13 17 19 20 18 16 13 10 10 9 10 10 9 8 9 9 7 6 6 7 7 8 7 7 8
8 8 8 8 8 8 9 8 9 10 10 10 10 11 10 11 11 10 8 9 9 8 8 8 8 8 9 9 11 11 11 13 17 21 22 23 24 21 14 14 12 13 10 10 10 10 11 11 12 11 11 12 11 14 13 13 13 13 14 13 12 12 13 14 14 12 11 9 10 9 9 11 10 9 9 7 8 8 7 8 5 3 3 5 6
8 7 7 7 8 9 8 9 9 9 9 9 9 10 10 10 11 10 9 9 7 7 8 7 8 9 9 9 10 12 10 12 17 20 22 23 24 15 13 14 14 13 10 10 11 10 11 11 11 10 12 12 17 25 20 14 15 15 15 13 10 10 11 12 15 13 11 10 11 11 10 8 9 8 8 8 7 7 6 2 1 2 1 4 6
8 7 8 8 8 8 8 9 9 9 9 10 10 10 10 11 10 7 8 9 10 9 9 8 7 7 8 9 10 11 10 12 17 20 22 24 19 13 13 12 13 13 10 9 9 10 9 12 11 11 12 12 21 26 25 20 14 15 14 13 11 10 9 10 17 18 15 12 12 12 12 14 15 15 14 15 11 5 4 2 5 1 2 4 5
9 8 8 8 9 10 9 9 9 9 9 9 10 10 9 8 8 7 7 9 9 10 9 9 8 7 8 9 10 11 11 10 16 19 21 23 19 14 12 12 13 13 12 9 8 8 9 17 15 11 11 14 24 27 27 20 14 15 14 14 13 11 9 7 7 12 17 13 13 13 15 14 15 16 14 12 8 4 3 5 3 1 3 4 5
9 9 9 9 10 10 9 10 10 10 10 10 8 9 9 9 9 7 7 7 9 8 7 8 9 7 8 10 9 11 10 9 14 18 21 23 19 13 12 11 12 13 11 11 8 6 9 15 22 18 13 19 28 27 28 22 15 15 16 14 12 12 10 11 11 11 11 12 12 12 12 15 9 3 4 5 7 5 3 4 3 3 5 5 5
9 9 9 9 9 10 10 11 11 10 11 12 10 10 9 8 9 8 8 6 7 7 8 8 10 9 7 8 9 10 10 8 10 18 20 23 24 14 11 12 14 13 11 9 10 9 9 9 17 24 22 24 27 27 26 25 15 14 13 13 14 15 9 10 10 9 8 11 12 9 5 4 4 4 3 3 2 2 4 5 6 5 6 5 5
10 10 10 9 10 11 10 10 12 12 11 11 10 9 9 9 10 9 9 8 7 7 8 8 8 9 8 8 8 9 9 9 9 17 20 23 25 23 11 13 12 11 11 11 9 8 8 9 8 19 23 24 26 26 26 25 18 12 14 13 13 11 12 10 12 15 7 7 7 5 8 4 4 3 2 2 3 4 5 6 6 6 7 7 6
9 9 10 11 11 11 11 11 11 11 11 10 10 11 10 10 10 10 8 8 10 10 9 7 8 8 7 7 8 9 8 11 9 15 21 23 24 30 15 13 13 12 12 12 10 7 9 9 9 17 25 25 26 26 27 26 24 12 11 13 13 17 13 9 8 9 8 6 8 6 5 4 3 3 3 4 4 5 5 5 6 7 7 7 6
10 10 11 12 12 12 12 12 13 11 11 10 11 13 12 11 11 9 10 10 10 12 11 9 7 8 7 7 7 7 8 8 15 12 19 24 25 28 23 14 18 13 13 13 13 10 8 9 12 23 26 26 27 27 27 28 22 12 20 19 18 19 15 8 8 9 8 8 8 7 6 5 4 4 3 4 5 5 5 5 6 6 6 6 7
11 12 12 12 13 13 12 12 12 11 11 12 13 14 14 12 11 10 9 9 9 10 10 9 8 8 9 8 6 6 6 6 11 17 15 22 24 26 26 21 21 14 12 12 10 6 7 8 13 25 26 26 27 27 26 26 16 22 23 23 21 20 10 10 8 8 8 8 9 10 8 5 4 4 4 5 5 5 4 5 5 5 5 5 6
12 13 14 14 14 13 12 12 12 11 12 12 13 14 15 13 12 10 9 9 10 10 10 8 9 9 8 9 8 7 6 7 7 12 19 20 23 24 26 27 24 23 14 11 10 9 13 20 23 25 25 25 27 26 24 26 23 23 24 24 21 9 10 9 10 9 10 10 10 7 8 5 5 4 5 5 4 4 4 3 3 4 4 5 7
14 15 14 14 14 13 15 15 14 13 13 11 12 13 14 14 13 12 9 9 10 10 11 9 9 9 9 9 9 8 7 5 7 8 11 15 17 23 26 26 27 25 19 12 14 19 22 24 25 25 25 22 18 14 13 14 22 25 26 24 11 10 10 9 9 10 11 10 8 9 7 4 5 5 5 4 3 4 3 3 3 4 3 4 5
14 14 15 14 14 13 15 14 14 14 14 13 12 13 13 12 12 12 11 11 11 10 11 10 10 10 10 10 9 8 7 6 6 8 9 9 11 13 16 16 23 24 15 10 13 13 17 19 15 20 15 22 21 15 13 15 18 17 15 11 9 10 10 11 12 11 9 8 8 7 4 4 4 4 4 4 4 3 3 3 3 4 3 3 5
15 16 17 15 14 14 14 15 17 15 15 13 14 14 13 12 12 13 13 11 11 11 11 11 11 11 11 10 9 8 7 7 8 9 10 11 11 10 11 11 9 12 9 10 10 11 12 16 19 16 15 15 15 11 11 9 8 8 10 9 9 9 9 10 8 5 6 5 4 4 4 5 5 5 3 3 3 3 3 3 3 4 3 4 5
18 19 19 17 17 16 15 14 14 14 14 15 14 14 14 14 13 13 13 11 12 12 12 12 12 11 10 10 10 10 10 10 13 14 13 15 13 11 11 11 9 11 13 17 12 10 10 11 11 12 11 12 10 10 11 10 9 10 11 9 10 9 9 9 9 8 6 6 7 6 5 5 3 3 3 3 4 3 3 3 4 5 5 4 6
20 21 18 17 17 16 14 13 13 12 13 12 13 13 17 24 19 16 15 19 25 26 22 16 14 11 10 12 11 13 14 13 11 18 20 21 23 23 19 18 16 13 18 27 17 12 13 12 12 13 12 10 13 12 13 14 13 10 11 12 11 11 9 8 7 7 6 6 7 5 5 4 4 4 4 3 3 3 4 5 4 4 4 5 6
18 18 17 16 16 15 12 12 10 10 11 12 11 14 13 15 24 30 29 28 29 30 29 30 31 29 18 14 13 20 20 13 13 19 22 24 25 25 24 23 23 24 27 19 15 13 13 13 13 13 13 12 12 14 12 13 12 12 10 10 10 11 10 9 8 7 6 7 6 5 5 5 5 5 5 4 3 3 3 4 4 4 4 5 6
16 16 16 14 15 17 12 14 12 14 11 12 11 13 12 15 15 22 28 29 30 31 31 31 31 29 30 26 18 10 17 23 19 20 22 25 25 26 25 26 25 28 31 29 14 13 13 13 13 13 13 14 13 11 11 11 11 12 11 10 9 9 12 11 8 7 8 7 6 6 6 6 5 5 4 4 4 4 4 3 3 3 5 5 7
18 17 16 16 15 18 17 16 16 13 13 13 12 13 14 13 13 16 16 21 27 28 28 29 30 31 30 30 31 25 17 16 23 22 23 24 25 25 26 28 27 30 33 20 15 15 13 13 14 13 13 13 12 12 12 12 11 11 11 11 11 10 6 8 10 7 7 6 6 6 6 7 6 6 5 5 5 4 4 3 3 4 5 6 8
18 15 13 13 15 16 16 15 15 15 15 16 15 16 16 15 16 17 17 17 17 21 26 29 29 29 29 30 29 28 28 25 23 24 24 24 25 25 25 21 26 31 29 17 14 14 13 13 12 12 12 11 10 10 11 11 11 11 10 9 10 7 8 10 9 7 7 8 7 7 6 6 7 6 5 5 5 4 3 3 3 4 5 6 7
16 18 27 25 17 17 16 16 15 16 15 14 14 15 16 16 16 16 16 16 15 15 14 15 20 26 22 21 25 29 27 27 25 23 25 24 24 25 25 15 16 18 21 16 15 14 14 14 13 12 12 12 11 10 11 10 11 10 12 12 10 8 9 9 8 8 7 7 6 7 7 8 7 6 5 5 4 3 3 3 3 4 6 6 7
13 14 13 17 16 15 14 13 14 15 15 16 16 16 16 14 13 12 14 14 14 14 15 14 13 14 24 25 27 26 28 27 25 24 23 25 24 25 14 12 13 14 15 14 14 13 12 12 12 12 12 12 11 11 11 10 12 12 13 15 11 8 8 7 8 8 7 6 7 7 6 5 6 5 5 3 3 3 3 3 4 5 6 6 7
12 13 12 12 11 12 11 13 13 16 18 17 14 14 14 15 15 14 14 14 17 17 14 12 11 11 15 14 19 24 28 25 24 25 24 24 27 19 13 14 13 13 14 12 12 11 12 11 11 12 12 12 11 10 10 10 12 14 11 9 8 9 7 7 7 7 8 7 6 7 7 6 6 5 4 3 3 3 4 4 4 6 6 8 9
15 13 13 13 13 13 14 13 14 21 18 15 14 13 15 14 15 15 15 15 13 15 17 14 11 11 9 8 12 11 13 20 25 23 21 21 18 14 13 11 11 10 12 10 11 12 11 10 10 11 10 10 10 10 10 13 14 11 11 11 7 9 12 10 10 8 7 6 7 7 7 6 5 5 4 4 3 3 4 4 4 5 6 8 8
12 19 27 29 23 15 12 12 12 11 11 12 13 15 17 16 15 12 12 11 12 13 14 14 13 10 10 7 7 8 12 10 11 12 12 12 11 11 11 11 11 11 11 10 11 12 11 11 9 9 9 10 10 9 12 14 13 10 9 9 8 9 10 8 8 8 8 8 8 6 4 4 4 4 4 4 4 4 4 4 5 6 6 7 8
15 14 16 24 17 17 16 15 15 15 15 15 14 14 13 13 13 13 12 12 13 13 11 12 12 10 7 7 8 8 9 10 11 10 10 10 11 11 11 11 11 10 10 10 11 12 11 10 10 10 9 9 10 13 15 17 14 10 9 8 8 10 9 8 9 10 8 6 6 5 5 5 4 4 3 4 4 4 4 5 6 6 7 8 8
12 12 13 16 17 14 14 14 13 13 13 13 13 13 13 14 13 12 11 12 10 11 13 12 9 7 7 9 15 16 10 10 10 10 10 11 11 11 11 10 10 8 8 10 10 10 10 11 10 10 11 11 12 15 17 16 15 13 9 8 7 9 9 8 8 7 6 5 5 5 5 5 4 4 3 3 5 5 5 5 6 7 8 7 8
12 13 12 12 13 12 12 13 12 13 12 11 10 10 11 12 13 13 13 13 12 12 11 10 9 7 9 19 20 24 15 10 10 9 10 11 11 10 9 8 5 8 9 10 11 11 11 11 10 12 14 13 14 15 16 16 15 11 9 8 9 9 7 6 7 7 6 6 6 5 5 4 4 4 4 4 4 5 5 6 6 7 7 7 7
14 13 13 12 11 11 12 12 12 11 12 13 12 12 14 14 13 12 11 12 12 12 12 11 9 9 10 15 18 22 13 10 9 9 9 9 9 7 5 4 6 7 8 9 9 11 12 12 10 11 16 17 18 20 17 18 16 11 9 9 8 6 7 6 6 6 6 6 5 5 4 4 4 3 4 4 5 5 6 6 6 7 7 7 7
13 13 12 11 11 10 11 10 10 10 10 13 14 14 13 12 11 12 12 12 10 10 11 9 7 6 6 10 13 12 10 8 8 8 8 6 5 5 6 7 7 8 8 9 9 9 11 11 12 11 11 12 12 14 14 14 16 15 9 9 8 7 6 6 6 7 6 5 5 5 4 4 4 4 4 5 5 5 6 6 6 6 7 6 7
13 12 12 11 10 9 9 9 9 10 11 11 10 10 11 10 11 12 12 11 13 11 9 8 7 5 6 7 7 8 8 6 4 4 6 6 6 7 8 8 9 10 9 9 8 11 13 15 17 18 15 12 12 13 13 12 10 8 7 8 8 7 6 6 6 5 5 5 5 5 5 5 5 5 5 5 5 5 6 6 6 7 8 7 8
12 12 11 10 9 8 8 8 9 8 8 8 9 9 10 11 11 11 12 12 12 10 7 7 6 6 6 6 7 3 2 6 6 7 6 7 8 8 8 8 9 10 10 11 12 14 17 19 19 18 18 16 14 12 11 10 10 9 7 5 5 5 5 4 4 5 5 6 5 5 5 4 5 5 6 5 4 5 5 6 7 7 7 7 7
13 12 11 9 7 6 7 8 7 7 7 8 9 9 10 10 10 11 11 11 10 6 6 5 5 5 4 1 4 7 5 6 8 8 9 9 9 9 9 9 10 10 10 11 15 17 18 17 19 19 18 15 14 13 11 9 9 7 6 5 5 5 5 5 5 5 6 5 5 5 5 4 4 4 5 4 4 5 7 7 7 7 6 7 7
11 11 11 9 5 5 6 6 7 9 8 8 8 9 9 10 10 9 7 7 7 4 3 1 2 5 6 6 5 5 7 7 8 8 9 8 8 8 10 10 11 12 13 13 13 14 15 14 13 14 15 14 14 11 8 6 5 4 4 3 3 4 5 5 4 4 3 4 5 5 5 5 4 4 4 5 6 6 6 6 6 4 5 5 7
11 11 11 10 6 5 6 6 6 6 7 7 8 9 9 10 10 7 4 2 1 1 3 5 6 5 6 6 7 7 7 8 8 7 8 8 9 9 10 11 12 15 17 18 17 17 15 15 16 16 14 8 7 7 7 6 5 5 4 4 5 9 9 9 6 5 7 5 5 5 4 5 5 6 6 7 7 6 5 5 5 5 6 6 6
10 11 11 11 10 9 7 6 6 6 7 8 8 8 5 2 3 3 3 4 5 5 5 5 5 5 5 6 6 7 7 8 7 8 8 9 10 10 11 14 16 17 19 19 17 16 15 15 15 14 13 12 11 8 6 6 5 5 4 5 8 10 10 11 10 10 8 5 6 5 5 5 6 7 7 7 5 4 5 5 5 5 7 6 6
11 11 10 10 10 10 10 9 8 8 7 6 6 5 5 5 5 6 6 6 5 5 6 6 6 7 6 6 7 8 8 7 7 9 8 9 10 12 11 15 15 14 16 17 15 14 14 14 13 13 11 9 7 5 5 4 4 5 6 8 9 10 11 11 7 11 13 9 6 6 6 7 8 7 6 5 4 4 7 6 6 6 6 6 6
Wind_Direction
348 327 303 287 269 261 254 240 238 235 235 228 232 231 226 219 217 217 203 210 194 196 197 195 195 198 197 201 198 196 197 197 197 199 202 202 198 196 179 187 188 190 173 181 182 184 190 188 184 180 164 173 173 166 168 167 164 165 163 165 171 175 172 170 187 194 129 135 146 162 173 218 237 194 233 247 272 273 265 265 269 275 281 283 285
353 341 326 304 286 272 265 255 244 237 238 236 235 234 228 221 218 210 213 209 194 203 198 197 195 194 198 202 197 195 197 200 196 199 205 203 202 192 191 187 192 187 179 182 183 185 183 183 183 178 176 176 165 172 168 166 172 168 177 180 179 178 188 161 199 188 187 143 172 169 205 212 250 206 261 287 289 295 292 290 273 264 268 272 271
355 350 343 327 309 294 284 271 257 246 240 241 240 238 235 230 216 217 218 211 204 203 199 195 194 195 197 197 195 196 194 195 197 199 205 204 204 202 196 189 189 185 186 189 180 175 179 189 185 169 165 174 176 173 167 174 174 176 177 179 179 178 178 195 160 198 195 174 152 192 207 220 237 270 292 291 293 298 299 300 304 302 293 294 291
352 356 356 347 330 314 303 289 278 262 252 246 246 242 238 235 221 223 222 212 210 207 201 200 195 194 197 197 195 197 197 198 196 197 203 202 207 207 202 199 198 196 191 182 180 181 186 179 184 174 172 174 173 172 178 176 177 178 173 178 180 175 179 183 210 175 182 170 187 192 209 215 226 237 255 276 285 289 287 292 290 292 299 304 306
353 352 354 355 353 345 322 305 292 278 266 262 255 250 244 239 227 224 219 218 214 206 208 203 203 199 200 198 198 200 200 196 195 195 195 200 206 208 207 204 203 203 197 191 184 184 182 188 175 168 172 175 171 177 176 176 175 173 177 177 178 173 168 184 190 182 171 190 170 185 199 222 231 239 240 256 268 266 271 275 291 300 303 299 294
354 357 356 355 354 354 349 334 312 291 280 274 266 260 254 245 238 229 219 223 217 212 209 205 207 207 206 205 204 203 198 197 202 200 197 195 199 204 207 208 207 206 203 200 193 190 187 185 173 174 175 179 180 175 172 177 173 175 176 177 174 168 175 184 185 186 191 200 182 188 202 217 236 233 218 224 238 254 254 258 264 273 281 282 272
354 356 355 355 353 351 347 346 336 322 304 286 277 268 257 249 241 237 224 223 221 215 212 212 213 214 213 209 208 201 199 200 201 200 198 196 197 198 200 204 212 214 212 205 200 196 194 186 180 179 182 183 173 176 174 173 175 178 179 174 172 171 176 180 181 182 188 190 203 209 211 216 220 239 210 211 225 230 247 260 266 247 241 249 266
352 353 352 351 352 349 344 337 338 333 325 313 298 279 267 257 247 241 231 227 224 221 215 214 216 213 217 213 212 206 204 205 203 201 197 195 201 205 202 202 204 215 219 213 208 204 198 192 190 186 184 184 179 176 170 173 169 176 179 170 170 169 174 173 172 179 182 188 196 197 205 206 216 229 233 217 218 225 222 233 252 261 254 255 253
348 352 350 350 348 342 340 338 336 336 332 330 321 308 291 270 261 250 238 234 228 226 222 216 217 217 217 215 213 209 211 210 206 201 199 201 203 204 201 199 197 203 207 216 215 211 207 205 197 188 189 189 182 175 179 168 161 168 173 167 167 171 171 170 174 173 177 180 191 197 199 204 208 203 209 208 208 205 192 213 249 258 264 266 263
345 344 348 345 341 339 338 338 339 338 341 339 336 328 317 303 282 262 248 238 234 228 224 221 219 219 216 216 214 213 217 215 212 206 199 200 200 203 204 206 203 199 200 199 206 209 209 207 209 194 186 183 183 182 183 184 188 178 166 168 171 170 175 169 177 178 173 181 191 184 190 206 203 203 202 204 198 202 216 229 247 256 257 259 262
335 335 334 337 333 336 338 339 338 339 339 336 334 334 328 321 305 289 270 250 239 232 224 226 223 221 219 216 215 217 219 219 212 204 205 200 197 203 204 207 207 205 202 199 199 194 199 205 201 197 192 186 184 181 181 184 182 184 181 178 174 170 173 176 180 173 176 185 181 187 194 195 198 200 200 193 199 200 213 229 245 256 260 272 277
327 323 320 326 331 334 335 334 335 333 336 336 334 330 327 323 316 301 286 273 255 236 232 231 229 224 223 222 222 223 224 220 208 208 206 203 199 201 205 207 207 212 209 202 197 187 191 188 192 190 195 192 181 183 185 184 183 181 180 182 185 187 184 170 166 172 184 177 185 193 185 193 192 190 189 186 192 205 218 234 241 248 256 260 267
319 317 320 325 329 331 330 333 329 329 329 329 328 328 328 324 319 315 302 285 271 255 245 239 236 231 225 227 229 228 230 211 209 210 207 205 202 198 208 207 206 212 208 207 199 191 183 183 181 192 199 194 188 185 175 180 183 179 178 180 186 190 195 197 187 175 167 176 189 192 191 187 189 192 182 183 185 206 224 232 238 246 253 257 263
311 308 311 319 322 325 325 326 324 322 322 323 327 326 327 324 316 308 303 299 284 266 252 243 242 236 232 232 234 234 232 223 212 210 207 206 203 198 209 207 211 213 208 204 201 194 186 183 184 184 182 189 190 183 176 172 172 173 175 179 183 192 195 195 192 186 178 182 182 185 189 190 192 178 179 182 196 209 223 236 245 250 250 259 282
303 299 303 310 317 318 321 318 316 316 316 318 321 322 322 321 320 315 312 303 295 283 268 260 247 241 243 240 242 241 236 219 211 211 208 206 205 200 207 210 212 215 209 205 202 196 187 185 184 182 173 184 185 180 173 174 171 174 177 180 179 183 190 192 192 186 184 184 188 189 193 198 193 179 181 198 211 218 226 241 246 254 280 288 282
296 295 299 303 309 313 314 313 310 312 312 314 315 317 318 316 314 314 312 301 287 281 279 265 258 249 242 240 243 246 242 218 214 213 209 208 204 204 207 210 213 213 205 201 199 195 192 187 183 177 176 182 185 186 184 174 176 176 178 180 172 178 191 194 190 188 187 191 196 196 191 178 173 186 200 204 209 220 221 172 166 238 288 291 280
295 295 296 305 307 307 306 304 304 305 310 313 315 314 315 313 309 307 304 302 303 294 282 270 266 259 250 243 241 246 244 224 218 212 211 208 204 207 208 210 215 214 206 197 197 198 190 190 185 181 180 180 187 188 186 178 177 177 175 176 178 176 185 185 195 189 179 172 171 174 185 198 204 205 207 210 208 178 115 232 248 177 271 275 279
297 297 297 304 308 307 304 298 297 299 301 304 304 305 303 298 293 300 296 295 291 284 286 287 275 263 254 248 239 244 243 227 222 217 212 208 202 205 206 209 213 213 212 198 195 195 191 193 188 183 181 181 187 189 188 180 178 177 173 172 176 179 182 158 168 194 192 194 198 205 212 210 209 215 217 216 211 186 138 210 212 151 249 248 258
298 298 301 303 304 303 299 296 297 300 300 297 298 297 296 295 294 290 278 272 274 279 273 269 270 263 256 250 247 244 247 235 224 223 216 211 207 206 205 207 211 213 207 206 197 182 192 196 193 192 183 182 187 190 187 182 180 177 176 171 176 184 185 166 176 180 188 198 206 206 211 213 213 158 110 159 194 203 172 192 204 210 235 240 248
292 294 295 298 299 300 298 297 297 298 299 298 298 294 293 294 287 285 276 264 265 263 266 264 264 261 250 248 246 241 244 237 224 224 221 216 211 206 205 204 212 208 202 199 197 201 192 191 198 197 190 187 190 191 190 184 178 177 173 179 179 189 172 170 179 179 177 190 198 198 176 156 152 150 138 118 122 173 226 230 222 210 216 224 225
291 292 291 294 296 296 297 297 299 299 295 292 292 293 292 289 290 286 283 277 266 259 249 249 249 257 250 245 246 242 236 233 223 221 223 221 216 211 206 209 208 200 202 200 199 191 185 189 180 195 192 188 190 193 192 189 178 177 182 182 186 174 156 168 175 173 171 178 183 182 191 165 135 131 174 172 207 219 224 226 214 213 210 212 218
289 289 290 291 292 293 294 294 295 294 293 291 293 291 291 287 281 280 277 276 273 269 262 250 248 251 249 233 237 242 234 228 221 220 222 223 220 218 212 210 199 195 199 204 199 191 186 181 168 188 191 187 189 193 193 192 184 177 186 176 161 164 166 163 162 168 171 173 180 180 178 167 161 165 193 209 220 222 221 220 219 223 229 224 221
288 289 291 291 291 290 290 293 293 292 292 294 295 292 291 289 281 271 268 269 268 270 268 262 254 254 249 227 221 233 232 233 224 218 221 223 223 223 213 200 199 196 200 205 203 196 169 171 176 185 188 187 189 192 192 192 182 177 178 174 173 170 160 159 164 166 167 169 173 185 187 183 186 192 199 220 227 218 216 221 224 226 232 236 243
290 290 288 287 290 289 288 287 286 288 292 296 296 291 287 283 277 270 262 258 263 262 264 263 261 262 260 259 238 219 221 217 229 225 222 224 228 227 223 203 197 199 201 210 204 185 173 160 175 185 187 188 189 191 191 189 176 177 177 177 176 173 155 160 161 162 158 165 187 202 203 190 181 200 206 214 214 216 219 225 236 240 250 261 261
290 287 287 288 287 286 288 286 285 287 286 288 288 287 285 284 280 272 253 254 251 253 256 251 250 255 258 256 261 248 228 226 225 232 228 225 228 230 231 219 203 195 198 207 194 181 179 178 182 186 189 189 190 190 192 188 173 170 177 180 178 159 151 163 166 157 173 187 197 198 207 192 191 196 198 198 203 214 216 230 251 265 273 276 270
288 285 284 283 284 287 288 287 284 283 283 280 277 278 280 279 275 274 264 251 251 248 255 249 246 246 247 249 245 240 227 205 221 224 230 229 228 230 233 229 214 206 193 190 185 178 179 181 182 186 191 190 188 191 190 193 178 172 175 180 166 150 156 164 161 168 185 187 188 199 203 170 186 191 192 193 201 210 213 235 249 258 245 260 275
289 288 287 286 285 284 283 284 286 285 283 283 277 273 272 269 265 266 263 259 254 249 251 250 247 244 242 243 239 230 214 205 208 213 218 225 223 225 227 238 218 208 196 177 175 177 181 180 182 185 185 188 188 185 183 183 186 176 175 161 137 157 161 174 174 175 173 173 190 198 162 175 173 172 190 196 212 219 224 240 268 271 272 266 281
294 291 288 288 285 282 280 277 278 280 279 277 279 278 273 267 263 259 258 256 254 254 248 245 243 241 245 243 240 232 221 209 203 204 211 213 220 217 222 227 207 193 180 171 170 172 175 184 184 187 186 188 186 176 172 167 157 127 129 137 143 146 157 151 138 161 176 166 153 143 153 168 179 186 187 202 217 221 218 237 248 267 263 281 290
295 290 287 285 281 279 277 275 274 273 273 272 265 263 266 270 268 267 256 251 250 254 256 253 246 243 240 241 237 236 235 224 217 204 207 205 206 211 210 210 192 186 176 168 160 166 170 177 182 183 188 184 162 159 155 148 140 144 135 139 146 149 154 160 166 171 158 154 176 174 174 175 179 183 193 211 221 216 219 237 253 255 268 263 262
290 285 283 281 280 280 279 276 272 270 271 271 273 270 261 265 267 267 271 262 254 248 245 249 249 248 246 240 227 230 233 233 215 205 209 210 215 214 213 205 195 178 173 176 164 167 178 180 184 184 183 174 178 172 167 162 147 150 160 148 146 152 152 144 146 156 153 169 177 166 173 162 176 187 201 211 228 219 231 230 243 243 262 268 274
285 283 283 280 282 283 282 280 276 274 273 275 274 276 281 270 265 268 267 270 269 265 258 254 253 250 243 250 240 232 240 238 202 203 209 214 214 215 215 213 201 179 175 172 173 178 179 183 186 184 183 181 183 180 172 170 165 158 156 157 159 156 152 148 158 149 159 176 180 169 159 170 178 189 195 204 206 231 230 243 244 256 251 263 269
283 282 282 283 285 283 282 282 282 281 279 276 274 278 278 283 280 267 267 268 268 267 264 258 255 254 253 249 249 239 237 238 226 212 216 212 212 214 215 214 206 179 179 173 171 187 187 185 185 186 183 184 186 177 175 172 164 162 155 158 168 168 161 155 150 150 172 172 167 166 176 181 191 191 194 197 206 232 245 246 246 246 262 259 263
275 277 276 278 279 279 278 279 278 276 276 276 276 275 277 277 280 288 279 271 272 271 264 259 255 253 250 250 249 246 233 223 226 224 216 211 211 212 213 214 210 181 177 177 185 183 185 189 187 184 183 188 183 177 175 169 166 165 168 167 167 169 139 131 144 154 173 170 158 170 176 189 191 192 194 195 196 216 227 246 257 260 264 274 273
272 274 276 273 274 273 274 274 274 271 269 268 268 269 267 266 267 268 274 279 276 271 268 264 259 254 252 250 248 247 243 232 225 222 218 214 212 210 211 213 211 186 183 184 182 186 184 184 185 184 182 182 182 178 177 175 171 167 165 166 157 132 126 143 152 160 163 171 169 177 178 184 189 184 192 191 205 209 226 239 255 262 266 268 279
271 271 272 275 275 274 274 272 273 274 275 272 269 268 264 260 259 260 259 262 268 272 272 262 257 257 256 252 249 246 243 238 225 222 221 215 212 209 209 209 212 195 192 185 183 183 182 186 183 180 175 177 179 178 183 177 172 171 170 161 145 128 140 153 161 160 165 168 170 178 182 185 189 191 185 187 186 203 220 240 252 256 265 272 279
272 272 272 270 270 269 269 267 267 267 268 269 272 274 278 281 282 283 283 278 268 257 258 258 258 254 253 254 250 246 242 241 228 218 218 217 214 208 203 204 210 201 197 191 182 183 178 181 178 175 174 178 176 178 180 171 167 165 153 138 136 137 138 146 158 161 157 164 175 179 183 187 191 186 184 187 203 223 235 236 250 258 263 266 269
275 275 271 268 265 264 265 263 263 267 269 270 267 266 261 259 259 262 262 264 268 278 276 261 250 245 246 243 249 248 242 238 231 217 214 214 214 210 206 208 205 198 196 188 179 170 173 177 175 174 177 176 172 171 168 155 145 140 150 140 128 132 139 141 145 151 157 165 173 185 186 183 177 173 171 182 211 217 233 242 249 255 259 268 280
276 273 271 268 263 262 261 259 260 263 264 262 258 256 260 258 255 252 255 260 258 255 258 266 252 238 232 234 231 238 245 239 233 220 213 213 213 211 210 209 204 197 196 182 174 171 172 169 168 172 172 165 164 167 153 135 147 140 127 133 128 132 145 147 152 151 159 165 173 180 180 178 173 172 174 186 211 220 235 247 251 258 266 273 279
273 279 283 285 286 283 274 274 272 271 273 274 271 266 265 267 272 272 264 258 253 247 249 254 257 251 243 231 221 220 232 228 219 207 200 201 207 210 208 202 201 198 188 177 167 168 165 164 162 159 161 162 159 149 134 141 139 135 128 125 134 151 149 152 154 162 171 174 172 174 168 173 169 173 182 195 224 231 242 249 257 260 275 282 282
282 282 281 280 280 278 277 274 273 270 265 263 261 264 267 259 248 248 256 264 272 280 274 249 238 237 229 202 208 216 217 216 212 202 194 196 203 209 206 203 200 194 174 166 166 165 158 152 152 153 155 149 144 132 140 137 137 132 131 137 144 153 153 157 164 167 173 168 171 173 167 174 172 172 186 213 222 239 243 250 253 263 271 278 277
279 277 275 274 274 277 274 271 264 259 256 255 255 252 255 258 259 257 253 253 248 247 259 275 275 254 217 214 222 222 220 215 209 200 195 198 203 207 208 206 199 168 154 154 157 153 148 142 143 140 113 124 135 137 138 135 132 131 133 140 137 148 156 162 166 169 164 162 166 167 176 171 167 172 194 219 231 240 247 258 269 273 271 268 273
279 279 276 274 273 272 272 275 276 279 282 282 279 274 264 252 248 248 254 257 263 270 274 267 257 261 254 239 231 226 220 213 208 202 197 200 202 207 209 202 163 152 155 153 153 146 140 137 137 129 129 134 130 132 131 134 134 127 139 136 147 152 158 166 170 169 165 167 169 171 171 171 171 187 213 222 235 242 257 258 261 262 269 274 276
281 277 274 267 266 261 260 262 263 264 264 269 269 269 270 278 286 280 261 250 248 252 259 257 243 230 225 233 237 234 224 216 203 202 199 198 200 197 177 134 136 139 140 137 137 139 140 141 142 141 145 148 148 149 154 147 142 138 137 138 145 148 159 163 163 167 168 166 166 169 163 172 189 198 219 235 241 250 251 257 259 266 268 276 280
282 279 271 266 261 257 256 253 257 255 259 263 268 273 279 284 280 276 283 286 270 248 246 253 259 234 222 231 234 234 227 212 198 198 190 178 146 113 113 113 111 111 114 118 126 130 136 136 128 117 124 121 124 124 119 126 133 138 141 139 143 152 158 163 169 173 170 165 167 162 168 173 191 207 221 231 232 241 253 256 260 268 277 277 280
287 282 277 270 263 255 255 250 253 258 262 266 267 271 269 265 264 273 274 271 272 260 244 238 237 236 233 228 225 229 226 202 168 133 125 120 112 110 113 116 114 115 117 116 121 128 125 116 115 118 118 118 111 108 112 120 130 135 140 144 144 159 172 177 174 164 157 154 159 162 167 184 197 208 223 232 235 241 253 261 263 276 276 276 284
298 294 285 276 267 255 253 249 252 254 257 258 259 261 259 261 263 264 263 267 266 258 246 234 229 223 223 220 219 222 100 96 105 100 95 96 109 112 113 117 118 124 128 133 125 127 126 125 128 125 123 121 121 117 114 114 121 117 122 139 145 140 140 134 132 143 157 157 148 166 178 191 212 217 224 234 240 254 254 260 268 268 267 274 278
311 306 302 288 275 254 254 253 256 253 252 255 256 259 260 262 260 258 257 257 263 257 246 230 218 211 196 140 75 67 90 100 104 105 107 107 112 119 120 119 117 118 115 121 111 110 110 113 106 116 115 117 109 113 119 123 116 126 118 110 108 116 114 135 140 140 144 153 163 167 185 193 214 228 240 244 255 254 253 256 259 263 261 281 283
322 321 320 309 278 265 259 259 260 264 263 265 265 266 270 273 266 257 256 258 253 241 214 125 75 77 83 81 84 80 92 96 97 104 110 110 114 118 125 125 122 123 119 118 101 103 110 115 115 114 115 120 120 124 126 130 126 126 124 133 125 127 148 144 131 149 166 174 183 188 192 207 226 235 248 245 249 252 248 253 265 263 273 276 284
332 332 335 334 311 275 266 268 260 258 257 262 264 265 261 257 260 263 262 249 283 68 85 106 96 88 85 86 97 99 98 104 107 100 100 106 113 118 123 124 121 122 114 111 112 114 117 112 109 113 112 118 115 119 126 132 139 137 152 142 167 171 174 178 171 186 186 189 198 202 210 223 231 237 242 243 247 244 245 254 262 267 278 279 277
342 344 344 345 349 346 332 300 276 266 269 262 264 269 278 312 359 29 33 45 47 46 53 53 65 71 75 93 95 100 101 104 100 107 108 114 116 117 120 121 119 115 107 108 109 106 101 97 99 102 103 94 104 117 130 135 145 156 154 168 183 184 186 193 193 191 190 200 195 205 206 224 223 239 244 236 229 242 255 255 259 270 279 275 276
349 350 352 354 354 354 358 360 358 359 355 355 2 10 11 16 25 27 37 36 45 49 60 65 80 80 81 83 90 101 103 89 91 104 106 106 115 123 119 117 108 98 95 96 98 93 99 97 100 98 106 113 122 132 133 140 140 156 176 182 187 190 194 197 204 209 206 203 206 213 222 227 236 239 241 242 248 240 247 257 270 270 271 270 276